Theta_e
351 346 337 336 336 335 336 337 341 342 341 339 338 338 336 337 337 338 339 338 337 334 332 333 333 333 331 330 329 332 335 336
350 347 340 336 337 336 336 337 340 342 341 339 339 338 337 337 337 337 337 337 336 332 332 333 332 331 330 330 328 333 334 336
351 347 346 341 340 337 337 338 340 341 340 340 340 339 337 338 337 337 337 337 334 332 332 332 332 331 330 330 327 332 335 335
350 350 347 345 344 343 337 339 340 341 341 342 341 340 339 342 339 342 337 336 333 332 332 332 331 331 330 329 327 334 334 334
346 350 348 347 346 345 342 342 342 342 344 344 341 341 343 341 341 341 339 336 333 333 333 332 332 336 335 330 328 334 335 332
327 347 349 349 347 347 344 342 342 344 345 345 342 342 343 340 343 341 340 336 335 334 333 333 335 336 337 336 335 335 335 333
315 326 348 350 347 347 346 343 343 343 343 344 343 343 343 343 343 343 341 340 336 336 336 335 336 337 337 335 336 334 334 334
313 315 340 347 348 345 345 344 344 343 344 344 343 343 342 342 343 342 342 340 337 338 336 337 336 336 333 335 333 332 332 334
313 313 316 346 346 345 344 342 344 343 343 344 343 343 342 343 341 343 342 340 339 338 336 337 336 336 334 333 331 335 334 334
313 313 313 328 345 345 344 345 341 343 342 345 345 341 342 343 342 342 343 342 339 339 337 335 335 334 337 334 332 331 332 331
313 314 313 313 330 343 344 343 343 340 343 344 346 344 341 343 343 343 343 342 342 339 338 340 336 335 337 336 334 332 331 330
319 314 313 314 314 338 341 342 342 342 343 341 345 345 343 342 343 341 340 341 342 339 340 340 336 334 334 334 334 334 332 334
312 317 316 313 315 325 338 339 341 340 341 342 344 345 343 342 343 342 341 341 342 341 338 339 337 338 335 335 333 333 333 333
311 310 312 318 313 314 334 337 340 340 341 341 341 344 341 342 345 342 341 341 342 341 340 340 339 338 337 336 334 335 335 334
305 307 310 319 314 313 314 335 336 338 338 341 340 343 342 339 342 343 342 340 341 342 338 337 337 338 336 335 334 333 334 335
300 303 307 311 314 313 314 320 335 336 337 340 342 342 342 340 340 340 341 339 337 341 341 338 336 336 335 335 335 336 333 334
297 299 303 308 311 314 313 315 325 334 337 339 341 341 343 340 339 339 340 339 336 340 341 338 336 335 335 334 334 334 333 332
295 298 299 303 308 313 318 315 316 331 335 337 339 341 341 340 339 337 337 341 341 339 340 337 335 335 334 334 333 333 333 333
294 295 295 301 305 310 315 319 318 322 334 336 337 339 339 339 337 335 337 340 340 338 337 335 334 334 334 333 333 333 333 333
292 293 294 296 303 307 310 314 318 323 332 335 336 337 339 339 337 336 337 339 338 337 334 334 333 332 329 329 330 329 331 332
Wind_Speed
6 11 23 21 20 20 19 20 23 23 24 23 22 21 20 19 18 16 14 11 10 10 10 9 9 8 6 6 4 1 11 7
7 5 19 21 21 20 20 20 22 24 25 24 23 21 20 19 18 16 15 12 11 11 11 11 10 8 7 6 5 3 7 6
10 10 15 18 18 21 21 21 23 24 24 24 23 22 21 19 18 16 15 13 12 12 12 11 10 9 8 7 7 4 5 3
16 16 20 19 19 18 23 22 23 25 26 25 24 21 20 18 18 17 16 15 14 14 14 13 11 9 9 8 7 0 2 7
16 22 24 25 23 24 23 20 23 26 24 24 26 23 20 21 21 20 18 18 17 17 16 16 14 13 9 8 7 6 8 7
13 22 27 29 25 25 26 25 24 24 26 26 27 25 23 24 23 23 19 20 18 19 17 16 14 15 14 9 10 9 1 7
29 17 31 28 29 23 27 30 29 27 28 30 28 27 27 25 24 24 23 21 21 20 19 17 17 17 12 11 11 9 7 6
31 29 20 32 28 33 23 28 29 32 30 32 33 29 28 29 26 25 25 24 23 25 22 23 20 19 15 13 13 12 12 7
24 29 25 32 32 30 31 29 26 34 31 33 37 34 30 31 31 26 26 27 25 23 21 18 19 19 18 17 14 13 12 14
26 27 28 20 33 30 32 25 33 26 33 32 39 40 33 31 32 30 28 26 31 22 24 22 21 21 23 21 17 16 15 14
24 26 30 31 25 35 34 34 30 41 31 31 37 41 41 31 31 29 28 28 27 27 25 23 25 21 12 18 16 17 16 16
40 30 31 31 33 34 34 39 34 33 32 38 33 40 42 35 30 31 31 28 27 33 23 16 22 22 22 17 13 13 12 14
41 42 46 36 31 26 36 35 35 34 38 36 30 40 40 37 31 32 32 30 28 28 31 23 22 20 25 9 17 18 18 20
40 43 49 41 34 30 31 39 38 38 37 40 45 35 41 46 32 33 36 31 26 31 32 23 18 21 9 5 3 7 18 25
42 42 46 43 34 35 37 38 39 39 39 36 45 36 43 49 40 30 37 35 29 30 32 32 20 16 18 7 3 5 6 19
39 41 43 45 35 34 34 26 34 37 39 40 37 43 42 44 45 43 32 37 38 26 32 32 28 20 19 27 23 10 2 1
36 39 40 42 45 30 35 34 32 41 39 40 39 43 41 42 46 48 35 34 33 33 34 34 32 26 24 16 24 25 28 9
37 35 37 39 40 38 29 33 29 38 44 42 35 36 36 39 41 41 45 31 36 39 39 38 33 36 36 32 25 12 16 12
36 36 40 38 36 35 30 29 31 36 50 42 38 32 35 37 42 40 41 39 38 42 39 37 41 39 34 35 27 25 23 22
33 34 37 40 36 31 24 20 25 29 47 40 41 40 39 39 41 42 42 42 36 40 36 35 30 31 27 26 27 26 27 31
Wind_Direction
168 197 197 198 202 200 199 199 197 195 192 193 194 195 192 189 186 184 184 188 187 181 177 169 163 159 155 150 166 96 48 83
173 200 195 200 207 207 204 202 201 199 195 195 195 196 197 195 191 190 190 190 192 184 178 172 168 164 160 158 151 98 55 92
195 197 194 201 208 211 208 206 202 201 199 196 196 194 198 202 197 198 194 193 192 187 182 181 174 172 170 172 169 160 337 114
207 194 193 197 202 210 210 208 202 198 198 197 196 194 203 201 203 200 202 195 193 190 189 188 180 186 189 190 197 182 170 156
203 200 198 196 202 198 211 204 202 202 200 200 194 192 202 194 200 201 201 195 192 192 194 193 186 193 209 198 208 219 223 186
287 206 195 198 204 201 194 196 201 198 197 195 194 194 199 196 198 203 200 200 190 197 202 199 205 203 217 204 224 257 188 187
310 309 199 199 204 215 200 194 199 200 198 195 194 197 196 197 199 194 195 201 190 199 200 202 209 223 211 217 215 229 261 184
299 306 243 200 205 218 220 201 202 199 200 197 196 199 199 199 200 200 199 200 197 205 200 205 204 212 217 221 230 229 231 236
279 291 307 211 205 212 229 218 209 200 204 201 201 200 203 201 200 203 203 200 204 210 206 213 209 201 223 216 224 226 228 226
283 284 277 276 214 210 225 224 217 213 205 205 201 203 201 202 198 203 204 201 208 207 211 219 217 214 214 211 210 224 227 229
303 292 281 272 260 222 216 227 221 217 214 209 206 201 201 202 200 198 202 204 205 208 215 220 210 229 253 200 205 214 212 230
329 308 292 285 266 239 227 216 228 216 218 210 207 196 200 198 202 203 206 209 208 208 213 216 201 215 235 250 235 229 233 221
331 317 320 280 279 262 232 226 217 227 213 210 206 199 200 198 206 198 199 199 205 202 209 220 212 213 205 216 229 236 244 241
325 325 321 287 264 262 241 232 223 215 222 215 208 204 209 202 200 200 201 197 207 203 203 209 212 209 176 159 204 238 240 242
326 323 316 304 259 258 260 242 229 226 222 215 212 205 206 205 203 196 196 196 200 208 207 207 209 210 213 172 188 223 198 227
327 325 323 327 258 251 257 253 234 222 220 215 205 202 198 201 201 203 198 202 206 206 197 197 202 203 217 226 240 256 223 199
332 334 333 330 325 266 254 249 249 233 220 221 202 201 197 190 198 203 200 196 202 203 185 192 199 197 205 209 231 249 263 227
338 339 340 338 333 323 304 258 252 237 225 217 207 192 182 185 192 200 206 207 199 200 196 195 202 205 210 212 212 187 213 217
336 340 342 338 339 331 321 290 268 248 232 203 206 196 197 186 188 195 199 205 199 197 195 199 207 207 209 214 215 217 230 252
342 345 350 342 337 331 330 321 296 289 238 202 204 200 196 191 185 192 198 199 192 199 200 206 202 209 214 215 219 225 237 241